{"data":{"norad_id":59163,"epoch":"2026-09-20T21:43:55.524864Z","epoch_age_seconds":123822,"freshness":"FRESH","line1":"1 59163U 24044M   26263.90550376 -.00000426  00000+0 -59548-5 0  9991","line2":"2 59163  43.0036  84.3508 0001554 268.6092  91.4581 15.27577485143421","mean_motion":15.27577485,"eccentricity":0.0001554,"inclination_deg":43.0036,"raan_deg":84.3508,"arg_perigee_deg":268.6092,"mean_anomaly_deg":91.4581,"bstar":-5.9548e-6,"rev_number":14342,"period_min":94.266903914206,"perigee_km":481.99039737514,"apogee_km":484.12285635437,"semimajor_km":6861.1936268648,"source":"CELESTRAK","updated_at":"2026-09-21T09:00:34.058281Z"}}